TimeMDT,TemperatureF,Dew PointF,Humidity,Sea Level PressureIn,VisibilityMPH,Wind Direction,Wind SpeedMPH,Gust SpeedMPH,PrecipitationIn,Events,Conditions,WindDirDegrees,DateUTC
12:16 AM,69.8,53.6,56,30.14,10.0,NW,9.2,-,N/A,,Clear,320,2013-07-08 06:16:00
12:36 AM,69.8,53.6,56,30.14,10.0,North,8.1,-,N/A,,Clear,350,2013-07-08 06:36:00
12:56 AM,68.0,53.6,60,30.13,10.0,North,10.4,-,N/A,,Clear,360,2013-07-08 06:56:00
1:16 AM,68.0,53.6,60,30.14,10.0,East,4.6,-,N/A,,Clear,80,2013-07-08 07:16:00
1:36 AM,68.0,53.6,60,30.14,10.0,ESE,4.6,-,N/A,,Clear,110,2013-07-08 07:36:00
1:56 AM,68.0,53.6,60,30.14,10.0,Calm,Calm,-,N/A,,Clear,0,2013-07-08 07:56:00
2:16 AM,66.2,53.6,64,30.14,10.0,West,8.1,-,N/A,Thunderstorm,Clear,270,2013-07-08 08:16:00
2:36 AM,68.0,53.6,60,30.14,10.0,WNW,10.4,-,N/A,,Clear,290,2013-07-08 08:36:00
2:55 AM,68.0,53.6,60,30.14,10.0,NW,12.7,-,N/A,,Clear,310,2013-07-08 08:55:00
3:15 AM,68.0,53.6,60,30.14,10.0,East,3.5,-,N/A,,Clear,90,2013-07-08 09:15:00
3:36 AM,71.6,42.8,35,30.15,10.0,WNW,15.0,23.0,N/A,,Clear,290,2013-07-08 09:36:00
3:56 AM,71.6,42.8,35,30.13,10.0,WNW,19.6,27.6,N/A,,Clear,290,2013-07-08 09:56:00
4:16 AM,73.4,42.8,33,30.12,10.0,NNE,8.1,16.1,N/A,,Clear,20,2013-07-08 10:16:00
4:36 AM,68.0,51.8,56,30.12,10.0,ESE,8.1,-,N/A,,Clear,110,2013-07-08 10:36:00
4:56 AM,66.2,53.6,64,30.12,10.0,NE,9.2,-,N/A,,Clear,40,2013-07-08 10:56:00
5:15 AM,68.0,46.4,46,30.11,10.0,East,6.9,-,N/A,,Clear,90,2013-07-08 11:15:00
5:36 AM,68.0,46.4,46,30.11,10.0,Calm,Calm,-,N/A,,Clear,0,2013-07-08 11:36:00
5:45 AM,66.2,46.4,49,30.12,30.0,Calm,Calm,-,N/A,,Scattered Clouds,0,2013-07-08 11:45:00
5:56 AM,66.2,46.4,49,30.12,10.0,WSW,8.1,-,N/A,,Clear,250,2013-07-08 11:56:00
6:55 AM,66.2,51.8,60,30.13,40.0,NW,18.4,-,N/A,,Scattered Clouds,310,2013-07-08 12:55:00
7:45 AM,68.0,53.6,60,30.15,30.0,NNW,3.5,-,N/A,,Partly Cloudy,340,2013-07-08 13:45:00
9:47 AM,78.8,46.4,32,30.17,30.0,ENE,4.6,-,N/A,,Scattered Clouds,70,2013-07-08 15:47:00
10:47 AM,84.2,46.4,27,30.17,30.0,ENE,6.9,-,N/A,,Scattered Clouds,60,2013-07-08 16:47:00
11:50 AM,89.6,35.6,15,30.16,30.0,WNW,12.7,19.6,N/A,,Scattered Clouds,290,2013-07-08 17:50:00
12:45 PM,91.4,33.8,13,30.15,30.0,North,11.5,-,N/A,,Scattered Clouds,10,2013-07-08 18:45:00
1:47 PM,95.0,24.8,8,30.13,40.0,WSW,15.0,23.0,N/A,,Scattered Clouds,250,2013-07-08 19:47:00
2:47 PM,96.8,23.0,7,30.11,40.0,West,15.0,23.0,N/A,,Mostly Cloudy,280,2013-07-08 20:47:00
3:07 PM,93.2,30.2,11,30.12,40.0,WNW,28.8,40.3,N/A,,Mostly Cloudy,300,2013-07-08 21:07:00
3:47 PM,91.4,32.0,12,30.13,40.0,North,18.4,27.6,N/A,,Mostly Cloudy,350,2013-07-08 21:47:00
4:47 PM,91.4,30.2,11,30.12,40.0,NNE,11.5,-,N/A,,Mostly Cloudy,20,2013-07-08 22:47:00
5:48 PM,86.0,35.6,17,30.13,40.0,North,12.7,-,N/A,,Mostly Cloudy,350,2013-07-08 23:48:00
6:46 PM,89.6,33.8,14,30.12,40.0,NNE,13.8,-,N/A,,Scattered Clouds,20,2013-07-09 00:46:00
7:46 PM,86.0,37.4,18,30.12,40.0,Calm,Calm,-,N/A,,Scattered Clouds,0,2013-07-09 01:46:00
8:48 PM,78.8,39.2,24,30.15,30.0,WSW,4.6,-,N/A,,Scattered Clouds,250,2013-07-09 02:48:00
9:45 PM,77.0,41.0,28,30.19,30.0,WSW,4.6,-,N/A,,Scattered Clouds,250,2013-07-09 03:45:00
11:16 PM,71.6,41.0,33,30.19,10.0,West,6.9,-,N/A,,Clear,260,2013-07-09 05:16:00
11:36 PM,71.6,39.2,31,30.19,10.0,SW,3.5,-,N/A,,Clear,230,2013-07-09 05:36:00
11:56 PM,75.2,37.4,25,30.19,10.0,Calm,Calm,-,N/A,,Clear,0,2013-07-09 05:56:00